Skip Page Navigation
NASA JPL Caltech
NASA Logo - Jet Propulsion Laboratory + View the NASA Portal
+ Center for Near-Earth Object Studies
JPL Home Earth Solar System Stars & Galaxies Technology
JPL Solar System Dynamics
BODIES ORBITS EPHEMERIDES TOOLS PHYSICAL DATA DISCOVERY FAQ SITE MAP
JPL Small-Body Database Browser
Search: [ help ]  
173253 (1999 RQ93)
Classification: Main-belt Asteroid          SPK-ID: 2173253
Ephemeris | Orbit Diagram | Orbital Elements | Mission Design | Physical Parameters | Discovery Circumstances | Close-Approach Data ]

[ show orbit diagram ]
Orbital Elements at Epoch 2459000.5 (2020-May-31.0) TDB
Reference: JPL 17 (heliocentric ecliptic J2000)
 Element Value Uncertainty (1-sigma)   Units 
e .22626607564469 5.7338e-08  
a 2.381897937300906 1.2951e-08 au
q 1.842955238441648 1.3312e-07 au
i 2.850440667334591 5.5331e-06 deg
node 52.98070519399367 9.6682e-05 deg
peri 308.5304761901967 9.7553e-05 deg
M 224.688353419699 1.9239e-05 deg
tp 2459505.179689864976
(2021-Oct-17.67968987)
7.4845e-05 TDB
period 1342.71286281015
3.68
1.0951e-05
2.998e-08
d
yr
n .2681139132357454 2.1866e-09 deg/d
Q 2.920840636160163 1.5881e-08 au
  Orbit Determination Parameters
   # obs. used (total)      375  
   data-arc span      15533 days (42.53 yr)  
   first obs. used      1977-10-16  
   last obs. used      2020-04-26  
   planetary ephem.      DE431  
   SB-pert. ephem.      SB431-N16  
   condition code      0  
   norm. resid. RMS      .60212  
   source      ORB  
   producer      Otto Matic  
   solution date      2020-May-21 03:25:27  

Additional Information
 Earth MOID = .841888 au 
 Jupiter MOID = 2.53494 au 
 T_jup = 3.501 
[ hide covariance matrix ]
Orbital Elements at Epoch 2456893.5 (2014-Aug-24.0) TDB
Reference: JPL 17 (heliocentric ecliptic J2000)
 Element Value Uncertainty (1-sigma)   Units 
e .2249267641746769 5.6941e-08  
q 1.846755276871087 1.3196e-07 au
tp 2456816.428671295915
(2014-Jun-07.92867130)
6.0161e-05 TDB
node 53.08633366973704 9.6803e-05 deg
peri 308.0102079952331 9.769e-05 deg
i 2.849027930455989 5.526e-06 deg
  Orbit Determination Parameters
   # obs. used (total)      375  
   data-arc span      15533 days (42.53 yr)  
   first obs. used      1977-10-16  
   last obs. used      2020-04-26  
   planetary ephem.      DE431  
   SB-pert. ephem.      SB431-N16  
   condition code      0  
   norm. resid. RMS      .60212  
   source      ORB  
   producer      Otto Matic  
   solution date      2020-May-21 03:25:27  

Additional Information
 Jupiter MOID = 2.53494 au 
 T_jup = 3.501 
Orbit Covariance (6×6)
  e q tp node peri i
e 3.242324963582227E-15 -7.494738622560771E-15 1.740168924337519E-12 2.44897605389134E-14 2.941243502919214E-13 -6.538093165776335E-16
q -7.494738622560771E-15 1.741356276717413E-14 -3.77115504334447E-12 -5.423443235864915E-14 -6.221889349194069E-13 1.392509604468101E-15
tp 1.740168924337519E-12 -3.77115504334447E-12 3.619399935385938E-9 4.543627801201419E-11 8.074344916757165E-10 -2.053119124109151E-12
node 2.44897605389134E-14 -5.423443235864915E-14 4.543627801201419E-11 9.370814636397054E-9 -9.34798375835297E-9 -1.41159771427962E-11
peri 2.941243502919214E-13 -6.221889349194069E-13 8.074344916757165E-10 -9.34798375835297E-9 9.543404082583088E-9 1.358528783109459E-11
i -6.538093165776335E-16 1.392509604468101E-15 -2.053119124109151E-12 -1.41159771427962E-11 1.358528783109459E-11 3.053644450026314E-11

Ephemeris | Orbit Diagram | Orbital Elements | Mission Design | Physical Parameters | Discovery Circumstances | Close-Approach Data ]

Physical Parameter Table
Parameter Symbol Value Units Sigma Reference Notes
absolute magnitude H 16.6   n/a MPO264383  

173253 (1999 RQ93)          Discovered 1999-Sep-07 by LINEAR at Socorro
Reference: 20080122/Numbers.arcLast Updated: 2008-01-28

[ show close-approach data ]
Alternate Designations
 1999 RQ93 = 3071 T-3 
Ephemeris | Orbit Diagram | Orbital Elements | Mission Design | Physical Parameters | Discovery Circumstances | Close-Approach Data ]
ABOUT SSD CREDITS/AWARDS PRIVACY/COPYRIGHT GLOSSARY LINKS
FirstGov 2020-Sep-29 11:48 UT
(server date/time)  
NASA Home Page
Site Manager:   Ryan S. Park
Webmaster  Alan B. Chamberlin